Location: Newark
(40.3500°N, 15.2333°E)
Time: 15:07:12
(UTC+00:00)

Courier 1B - All Passes

Search period start: 27 January 2020 00:00
Search period end: 06 February 2020 00:00
Orbit: 962 x 1209 km, 28.3° (Epoch: 27 January)

Date Brightness Start Highest point End Pass type
(mag) Time Alt. Az. Time Alt. Az. Time Alt. Az.
27 Jan - 01:38:59 10° SW 01:44:54 28° S 01:51:06 10° ESE visible
27 Jan - 03:31:58 10° WSW 03:38:20 32° S 03:44:59 10° SE visible
27 Jan - 05:26:10 10° WSW 05:31:46 22° SSW 05:37:29 10° SSE visible
27 Jan - 22:56:33 10° SSE 22:58:18 11° SSE 23:00:03 10° SE night (unlit)
28 Jan - 00:45:47 10° SW 00:51:16 25° SSE 00:57:01 10° ESE visible
28 Jan - 02:38:23 10° WSW 02:44:38 32° S 02:51:10 10° ESE visible
28 Jan - 04:32:11 10° WSW 04:38:04 25° SSW 04:44:09 10° SE visible
28 Jan - 06:28:36 10° SW 06:31:18 12° SSW 06:34:03 10° S daylight
28 Jan - 23:52:46 10° SSW 23:57:42 21° SSE 00:02:49 10° ESE night (unlit)
29 Jan - 01:44:53 10° SW 01:50:57 31° S 01:57:18 10° ESE visible
29 Jan - 03:38:21 10° WSW 03:44:22 28° S 03:50:39 10° SE visible
29 Jan - 05:33:32 10° WSW 05:37:40 16° SSW 05:41:54 10° S visible
29 Jan - 23:00:02 10° SSW 23:04:10 17° SSE 23:08:26 10° ESE night (unlit)
30 Jan - 00:51:30 10° SW 00:57:18 29° S 01:03:23 10° ESE visible
30 Jan - 02:44:39 10° WSW 02:50:41 30° S 02:57:01 10° SE visible
30 Jan - 04:39:08 10° WSW 04:44:01 19° SSW 04:49:03 10° SSE visible
30 Jan - 22:07:47 10° S 22:10:41 13° SSE 22:13:39 10° SE night (unlit)
30 Jan - 23:58:14 10° SW 00:03:42 26° SSE 00:09:24 10° ESE night (unlit)
31 Jan - 01:51:03 10° WSW 01:57:00 31° S 02:03:18 10° SE visible
31 Jan - 03:45:03 10° WSW 03:50:22 22° SSW 03:55:54 10° SSE visible
31 Jan - 23:05:07 10° SW 23:10:08 23° SSE 23:15:21 10° ESE night (unlit)
01 Feb - 00:57:33 10° WSW 01:03:22 30° S 01:09:31 10° ESE visible
01 Feb - 02:51:11 10° WSW 02:56:44 25° SSW 03:02:31 10° SE visible
01 Feb - 04:47:20 10° SW 04:49:56 12° SSW 04:52:34 10° S visible
01 Feb - 22:12:11 10° SSW 22:16:37 19° SSE 22:21:11 10° ESE night (unlit)
02 Feb - 00:04:07 10° SW 00:09:46 29° S 00:15:41 10° ESE night (unlit)
02 Feb - 01:57:27 10° WSW 02:03:05 27° S 02:09:00 10° SE visible
02 Feb - 03:52:27 10° SW 03:56:20 15° SSW 04:00:19 10° S visible
02 Feb - 21:19:32 10° SSW 21:23:08 15° SSE 21:26:48 10° ESE night (unlit)
02 Feb - 23:10:46 10° SW 23:16:11 27° S 23:21:49 10° ESE night (unlit)
03 Feb - 01:03:49 10° WSW 01:09:27 29° S 01:15:24 10° SE night (unlit)
03 Feb - 02:58:10 10° WSW 03:02:44 18° SSW 03:07:27 10° SSE visible
03 Feb - 20:27:30 10° S 20:29:41 12° SSE 20:31:53 10° SE night (unlit)
03 Feb - 22:17:33 10° SW 22:22:39 24° SSE 22:27:54 10° ESE night (unlit)
04 Feb - 00:10:16 10° WSW 00:15:52 29° S 00:21:43 10° SE night (unlit)
04 Feb - 02:04:10 10° WSW 02:09:08 21° SSW 02:14:18 10° SSE visible
04 Feb - 21:24:26 10° SSW 21:29:08 21° SSE 21:33:56 10° ESE night (unlit)
04 Feb - 23:16:47 10° SW 23:22:18 29° S 23:28:00 10° ESE night (unlit)
05 Feb - 01:10:21 10° WSW 01:15:33 24° SSW 01:20:57 10° SE night (unlit)
05 Feb - 03:06:28 10° SW 03:08:41 12° SSW 03:10:56 10° S visible
05 Feb - 20:31:30 10° SSW 20:35:39 18° SSE 20:39:50 10° ESE night (unlit)
05 Feb - 22:23:21 10° SW 22:28:44 28° S 22:34:15 10° ESE night (unlit)
